Home   Weather   Lowell   Past weeks

Flag for USA Past Weather in Lowell, Massachusetts, USA — Yesterday and Last 2 Weeks

Now
77 °F

Sunny.


Feels Like: 78 °F
Forecast: 55 / 82 °F
Wind: 13 mph from Southeast

Location: Hanscom Field

Current Time: Jul 26, 2017 at 6:48:26 pm

Latest Report: Jul 26, 2017 at 5:56 pm


Visibility: 10 mi

Pressure: 30.14 "Hg

Humidity: 37%

Dew Point: 49 °F

Location of LowellLocation

Past Weather in Lowell — Graph

°F

Lowell Temperature Yesterday

Maximum temperature yesterday: 67 °F (at 5:56 pm)
Minimum temperature yesterday: 53 °F (at 11:56 pm)
Average temperature yesterday: 59 °F

High & Low Weather Summary for the Past Weeks

 TemperatureHumidityPressure
High90 °F (Jul 19, 1:56 pm)93% (Jul 12, 7:56 pm)30.26 "Hg (Jul 12, 7:56 pm)
Low50 °F (Jul 26, 5:56 am)35% (Jul 21, 2:56 pm)29.78 "Hg (Jul 23, 2:56 am)
Average70 °F73%30.00 "Hg
* Reported Jul 11 4:03 pm — Jul 26 4:56 pm, Lowell. Weather by CustomWeather, © 2017

Note: Actual official high and low records may vary slightly from our data, if they occured in-between our weather recording intervals... More about our weather records

Advertising

Lowell Weather History for the Previous 24 Hours

Scroll right to see more
 ConditionsComfort  
Time TempWeatherWind HumidityBarometerVisibility
4:56 pm
Wed, Jul 26
79 °FScattered clouds.6 mph38%30.15 "Hg10 mi
3:56 pm79 °FPassing clouds.3 mph41%30.17 "Hg10 mi
2:56 pm77 °FOvercast.6 mph45%30.19 "Hg10 mi
1:56 pm77 °FPartly sunny.5 mph45%30.20 "Hg10 mi
12:56 pm80 °FBroken clouds.3 mph41%30.21 "Hg10 mi
11:56 am76 °FScattered clouds.6 mph48%30.23 "Hg10 mi
10:56 am75 °FScattered clouds.5 mph52%30.25 "Hg10 mi
9:56 am73 °FSunny.6 mph57%30.26 "Hg10 mi
8:56 am68 °FSunny.5 mph70%30.26 "Hg10 mi
7:56 am62 °FSunny.No wind80%30.26 "Hg10 mi
6:56 am56 °FSunny.No wind90%30.26 "Hg10 mi
5:56 am50 °FSunny.No wind89%30.25 "Hg10 mi
4:56 am52 °FClear.No wind89%30.24 "Hg10 mi
4:26 am52 °FFog.No wind89%30.20 "Hg5 mi
4:16 am52 °FFog.No wind89%30.20 "Hg1 mi
2:56 am52 °FClear.No wind89%30.23 "Hg10 mi
1:56 am53 °FClear.No wind89%30.24 "Hg9 mi
1:19 am53 °FFog.No wind89%30.21 "Hg3 mi
1:07 am53 °FFog.No wind89%30.21 "Hg2 mi
12:56 am53 °FClear.3 mph89%30.25 "Hg10 mi
11:56 pm
Tue, Jul 25
53 °FClear.No wind93%30.25 "Hg10 mi
10:56 pm55 °FClear.No wind90%30.25 "Hg10 mi
9:56 pm57 °FClear.No wind87%30.24 "Hg10 mi
8:56 pm58 °FClear.No wind81%30.22 "Hg10 mi
7:56 pm64 °FSunny.No wind65%30.21 "Hg10 mi
6:56 pm67 °FPassing clouds.6 mph57%30.20 "Hg10 mi
Weather by CustomWeather, © 2017

See weather overviewHow to use our weather pages